TimeMDT,TemperatureF,Dew PointF,Humidity,Sea Level PressureIn,VisibilityMPH,Wind Direction,Wind SpeedMPH,Gust SpeedMPH,PrecipitationIn,Events,Conditions,WindDirDegrees,DateUTC
12:53 AM,26.1,21.0,81,30.70,10.0,NW,15.0,-,N/A,,Mostly Cloudy,320,2013-05-02 06:53:00
1:53 AM,26.1,19.0,75,30.70,10.0,NW,13.8,-,N/A,,Overcast,320,2013-05-02 07:53:00
2:53 AM,23.0,18.0,81,30.72,10.0,NW,11.5,-,N/A,,Mostly Cloudy,310,2013-05-02 08:53:00
3:53 AM,21.9,17.1,82,30.73,10.0,WNW,10.4,-,N/A,,Scattered Clouds,300,2013-05-02 09:53:00
4:53 AM,21.0,16.0,81,30.74,10.0,WNW,10.4,-,N/A,,Clear,300,2013-05-02 10:53:00
5:53 AM,19.9,15.1,81,30.77,10.0,WNW,10.4,-,N/A,,Partly Cloudy,300,2013-05-02 11:53:00
6:53 AM,21.0,15.1,78,30.79,10.0,WNW,11.5,-,N/A,,Clear,290,2013-05-02 12:53:00
7:53 AM,25.0,17.1,72,30.78,10.0,WNW,12.7,-,N/A,,Clear,290,2013-05-02 13:53:00
8:53 AM,28.9,19.9,69,30.77,10.0,WNW,9.2,-,N/A,,Clear,290,2013-05-02 14:53:00
9:53 AM,34.0,24.1,67,30.76,10.0,WNW,11.5,-,N/A,,Clear,300,2013-05-02 15:53:00
10:53 AM,37.9,25.0,60,30.74,10.0,NNW,10.4,-,N/A,,Clear,330,2013-05-02 16:53:00
11:53 AM,39.9,21.9,49,30.72,10.0,NW,11.5,-,N/A,,Clear,310,2013-05-02 17:53:00
12:53 PM,43.0,25.0,49,30.68,10.0,WNW,12.7,-,N/A,,Clear,290,2013-05-02 18:53:00
1:53 PM,45.0,24.1,44,30.65,10.0,NW,12.7,20.7,N/A,,Clear,320,2013-05-02 19:53:00
2:53 PM,46.9,19.0,33,30.62,10.0,North,12.7,-,N/A,,Partly Cloudy,360,2013-05-02 20:53:00
3:53 PM,48.0,17.1,29,30.59,10.0,NW,12.7,20.7,N/A,,Clear,320,2013-05-02 21:53:00
4:53 PM,46.0,14.0,28,30.58,10.0,NW,13.8,-,N/A,,Clear,310,2013-05-02 22:53:00
5:53 PM,46.9,15.1,28,30.55,10.0,WNW,10.4,-,N/A,,Clear,290,2013-05-02 23:53:00
6:53 PM,45.0,14.0,29,30.54,10.0,WNW,9.2,-,N/A,,Scattered Clouds,300,2013-05-03 00:53:00
7:53 PM,37.0,19.9,50,30.54,10.0,West,6.9,-,N/A,,Clear,280,2013-05-03 01:53:00
8:53 PM,32.0,21.0,64,30.54,10.0,North,-9999.0,-,N/A,,Clear,0,2013-05-03 02:53:00
9:53 PM,30.9,19.9,64,30.52,10.0,NW,6.9,-,N/A,,Clear,310,2013-05-03 03:53:00
10:53 PM,28.9,19.9,69,30.49,10.0,West,8.1,-,N/A,,Clear,280,2013-05-03 04:53:00
11:53 PM,25.0,19.9,81,30.48,10.0,West,4.6,-,N/A,,Clear,280,2013-05-03 05:53:00